Weather Roundup
Issued by NWS

Home | Current Version | Previous Version | Graphics & Text | Print | Product List | Glossary Off
Versions: 1 2 3 4 5 6 7 8 9 10 11 12 13 14 15 16 17 18 19 20 21 22 23 24 25 26 27 28 29 30 31 32 33 34 35 36 37 38 39 40 41 42 43 44 45 46 47 48 49 50

000
NZUS93 KARX 260859
HRRWXR

CURRENT HOURLY OBSERVATIONS ACROSS
MUCH OF THE UPPER MISSISSIPPI VALLEY
NATIONAL WEATHER SERVICE LA CROSSE WI
400 AM CDT WED APR 26 2017


...SOUTHEAST MINNESOTA...


CITY           SKY/WX    TMP DP  RH WIND       PRES   REMARKS
ROCHESTER      CLOUDY    52  52 100 NE10      29.39F
ROCHESTER/MAYO CLOUDY    54  54 100 NE3       29.40S
WINONA         DRIZZLE   55  54  94 CALM      29.40F
AUSTIN         CLOUDY    54  50  87 CALM      29.38F
ALBERT LEA     DRIZZLE   50  48  93 W3        29.41S
DODGE CENTER   LGT RAIN  52  52 100 NE9       29.39F
PRESTON        CLOUDY    52  50  93 NE3       29.39F
OWATONNA       LGT RAIN  54  52  94 N7        29.41F
FARIBAULT      LGT RAIN  46  46 100 N12G17    29.43F
$$

...ELSEWHERE IN MINNESOTA...


CITY           SKY/WX    TMP DP  RH WIND       PRES   REMARKS
MINNEAPOLIS    LGT RAIN  42  39  89 N12       29.48F
INTNL FALLS    CLOUDY    24  19  81 NE14G23   29.81F WCI  12
DULUTH         FRZ RAIN  32  30  92 E21G32    29.65R WCI  20
RED WING       RAIN      50  46  87 N3        29.43R
REDWOOD FALLS  LGT RAIN  39  36  89 N12       29.54S WCI  32
MANKATO        LGT RAIN  45  44  97 N17       29.45F
WORTHINGTON    CLOUDY    36  36 100 NW20G30   29.54F FOG     WCI  25
FAIRMONT       LGT RAIN  43  42  97 NW18      29.46F
$$

...SOUTHWEST WISCONSIN...


CITY           SKY/WX    TMP DP  RH WIND       PRES   REMARKS
LA CROSSE      CLOUDY    57  55  93 CALM      29.40S
PRAIRIE DU CHI CLOUDY    57  56  96 CALM      29.38F FOG
BOSCOBEL       CLOUDY    58  56  93 N5        29.39F
LONE ROCK      NOT AVBL
PLATTEVILLE    CLOUDY    60  57  88 SE5       29.40F
FORT MC COY    CLOUDY    53  53 100 CALM      29.42F
MAUSTON-NEW LI CLOUDY    56  54  93 CALM      29.41F
VIROQUA        CLOUDY    55  55  99 E6        29.40F
WIS DELLS      CLOUDY    60  51  71 CALM      29.42F
$$

...ELSEWHERE IN WISCONSIN...


CITY           SKY/WX    TMP DP  RH WIND       PRES   REMARKS
MILWAUKEE      CLOUDY    59  52  77 SE9       29.48F
MADISON        CLOUDY    60  55  83 CALM      29.42F
GREEN BAY      MOCLDY    53  53 100 NE6       29.49F
EAU CLAIRE     NOT AVBL
BLACK RVR FLS  DRIZZLE   55  55 100 NE5       29.41F
MEDFORD        DRIZZLE   53  51  95 NE12      29.46F
WAUSAU         CLOUDY    54  53  97 E9        29.45F
WIS RAPIDS     LGT RAIN  58  56  93 E5        29.45F
MARSHFIELD     LGT RAIN  56  53  90 E6        29.44F FOG
RICE LAKE      RAIN      38  36  94 N14       29.52S WCI  29
$$

...NORTHEAST IOWA...


CITY           SKY/WX    TMP DP  RH WIND       PRES   REMARKS
WATERLOO       LGT RAIN  55  52  89 VRB5      29.37F
DUBUQUE        CLOUDY    58  55  90 S9        29.40S
DECORAH        CLOUDY    57  55  94 SE6       29.37F
MASON CITY     CLOUDY    48  47  96 NW13      29.42F
CHARLES CITY   CLOUDY    54  54 100 W3        29.39S
OELWEIN        CLOUDY    59  59 100 S7        29.38F
$$

...ELSEWHERE IN IOWA...


CITY           SKY/WX    TMP DP  RH WIND       PRES   REMARKS
DES MOINES     CLOUDY    46  44  93 NW16      29.48R
IOWA CITY      CLOUDY    61  53  75 SW3       29.40F
FORT DODGE     CLOUDY    43  37  81 W9G16     29.48F
MARSHALLTOWN   CLOUDY    48  47  96 W12       29.42R
CEDAR RAPIDS   CLOUDY    57  57 100 W6        29.37F
$$

...NORTHERN ILLINOIS...


CITY           SKY/WX    TMP DP  RH WIND       PRES   REMARKS
CHICAGO-OHARE  CLOUDY    66  55  67 S10       29.48F
CHICAGO-MIDWAY CLOUDY    67  55  65 S12       29.49F
MOLINE         CLOUDY    65  53  65 SW5       29.40S
ROCKFORD       CLOUDY    66  53  63 S14       29.45F
PEORIA         PTCLDY    65  52  62 S9        29.45S
$$

NOTE: "FAIR" INDICATES FEW OR NO CLOUDS BELOW 12,000 FEET WITH NO
SIGNIFICANT WEATHER AND/OR OBSTRUCTIONS TO VISIBILITY. WIND
SPEEDS ARE IN MILES-PER-HOUR.




USA.gov is the U.S. government's official web portal to all federal, state and local government web resources and services.